User: anonymous   Login
Location: Unspecified
(42.1900°N, 71.3291°W)
Time: 14:12:28
(UTC-04:00)
Language:

Resurs 1-4 Rocket - Orbit

View from above orbital plane
View from above orbital plane
View from above satellite
View from above satellite

Ground track
Ground track

The orbit data is extracted from the following two-line orbital elements,

1 25400U 98043G   14302.78609986  .00000069  00000-0  46776-4 0  7951
2 25400 098.3520 273.1892 0009173 227.1988 132.8422 14.25267513848119
Epoch (UTC): 29 October 2014 18:51:59
Eccentricity: 0.0009173
inclination: 98.3520°
perigee height: 801 km
apogee height: 814 km
right ascension of ascending node: 273.1892°
argument of perigee: 227.1988°
revolutions per day: 14.25267513
mean anomaly at epoch: 132.8422°
orbit number at epoch: 84811

The dashed part of the orbit path shows where the satellite is in the earth's shadow,  

DLR